Wind_Speed
41 41 42 42 43 44 44 44 44 44 44 44 44 44 45 46 46 46 47 46 47 48 48 49 49 50 51 51 51 51 50 50 50 50 49 50 49 50
42 42 43 44 43 43 43 43 43 44 44 43 44 44 45 45 45 46 46 47 48 49 49 49 50 50 51 51 51 50 51 51 51 50 51 51 51 52
43 43 44 44 45 44 44 44 44 44 44 43 44 44 44 45 46 46 46 46 48 48 49 49 49 49 49 50 50 50 51 51 51 51 51 52 53 53
43 44 44 45 45 44 44 43 44 44 44 43 44 44 44 45 46 46 47 47 47 47 47 48 48 48 49 50 50 51 51 52 53 53 53 53 53 54
43 43 44 44 44 44 43 44 43 43 43 44 44 44 43 44 44 45 46 46 47 46 47 47 47 48 49 50 50 51 51 52 53 54 54 55 55 55
43 43 42 43 43 43 44 44 44 45 45 44 44 44 43 44 44 44 45 46 47 47 47 47 48 48 49 50 50 51 52 53 53 53 55 56 56 55
42 42 42 42 43 43 44 44 44 45 45 45 44 43 43 43 44 45 46 46 47 47 47 47 48 48 50 51 51 51 52 52 53 53 54 56 55 54
42 42 42 42 42 42 42 44 44 44 44 44 44 44 43 44 44 45 46 45 46 47 47 47 48 49 49 50 51 51 52 52 52 53 55 56 55 54
42 41 41 42 42 42 42 43 43 44 44 44 44 44 44 44 44 44 45 45 45 46 46 46 48 49 49 49 49 50 51 52 53 54 54 54 55 54
42 41 41 40 41 42 41 42 42 42 42 43 43 43 43 44 44 44 45 45 45 47 47 46 46 47 48 48 49 49 50 51 51 52 53 53 53 53
41 41 41 40 40 41 41 41 40 40 40 41 41 41 41 41 42 42 43 45 45 45 45 46 46 46 47 47 48 49 49 50 50 50 51 52 52 53
39 39 39 39 39 40 40 40 40 40 39 39 40 40 41 41 41 41 42 43 43 43 44 45 45 46 46 46 48 48 48 49 49 50 51 51 52 52
37 37 37 37 38 38 38 38 38 39 39 39 39 40 41 41 41 41 42 42 42 42 43 43 44 45 45 45 45 46 46 47 48 49 49 50 51 51
37 36 36 36 37 37 37 37 37 37 38 38 39 39 40 40 41 41 41 42 41 41 42 42 43 43 43 43 43 44 45 46 47 47 48 48 49 49
36 36 36 36 36 37 37 37 37 38 38 37 37 38 39 39 40 40 40 40 40 40 40 41 41 41 42 42 42 42 43 44 45 45 46 45 46 46
36 35 35 35 35 35 36 36 37 37 38 38 38 38 38 38 38 38 38 38 39 39 39 40 40 41 40 41 41 42 42 43 43 44 45 45 45 44
35 35 35 34 35 35 35 36 37 37 37 37 37 37 37 37 37 37 37 37 38 38 38 38 39 40 40 40 40 41 42 42 42 42 42 42 43 43
35 35 34 34 34 34 34 34 34 34 35 35 36 36 36 36 37 37 36 37 37 37 37 38 39 38 39 39 40 41 41 41 41 40 40 40 40 41
32 32 32 32 32 32 33 33 33 33 33 33 34 34 35 35 35 36 36 36 37 37 37 37 37 37 38 38 39 39 40 40 40 40 39 39 39 39
30 30 31 31 31 31 32 32 32 32 32 32 33 34 34 34 34 35 36 36 36 36 37 37 37 37 37 37 37 38 39 39 39 38 38 38 38 38
28 29 29 30 31 31 31 32 32 32 32 33 33 34 34 34 35 35 35 35 35 36 36 37 37 37 36 36 36 36 38 38 38 37 37 37 37 37
27 28 29 29 30 30 31 32 32 32 32 33 34 34 34 34 34 35 35 34 35 35 35 35 35 36 35 35 35 36 36 36 36 36 37 37 36 35
27 28 28 29 29 30 30 30 31 31 32 33 33 33 33 33 34 34 34 34 34 34 33 33 34 34 34 34 34 34 34 35 35 35 35 36 35 35
Wind_Direction
262 263 263 264 265 267 268 268 269 268 267 265 264 263 263 264 265 265 265 265 264 266 266 266 266 266 265 267 268 268 268 269 269 270 270 271 273 275
263 263 263 263 265 267 267 268 268 268 267 267 265 264 264 265 265 266 266 265 264 266 267 267 267 267 266 265 266 267 268 269 270 270 271 271 273 276
264 264 264 263 264 266 267 267 268 268 269 267 266 265 265 265 266 266 266 266 266 266 266 268 268 267 266 265 266 267 267 269 270 271 271 272 274 276
264 265 265 264 264 265 266 267 267 268 269 268 267 267 267 267 266 266 265 266 266 267 267 268 268 267 267 266 267 268 268 270 270 270 271 273 275 276
265 265 265 265 264 265 266 266 266 267 269 269 268 268 269 269 268 266 266 266 266 268 268 268 268 269 269 268 267 268 269 270 270 271 272 273 275 277
265 265 266 266 266 266 266 266 266 268 269 270 269 269 270 270 269 267 266 267 268 269 269 269 269 270 270 270 270 270 271 271 271 272 273 274 276 277
265 266 266 266 266 266 266 266 267 267 268 269 269 269 270 270 268 267 268 268 268 268 270 270 271 270 271 272 273 272 272 272 271 272 273 274 275 277
265 265 266 266 266 266 267 267 266 267 267 268 268 268 271 271 269 269 269 268 268 268 270 271 271 272 273 273 274 274 273 272 271 272 273 274 276 277
265 265 265 265 265 265 266 266 266 267 267 268 267 268 270 271 270 269 269 269 269 269 270 270 271 272 272 273 274 274 274 273 273 273 274 275 276 278
265 265 265 266 266 266 266 266 267 267 267 267 267 268 269 270 271 270 270 270 270 270 271 272 273 273 273 274 275 275 275 274 274 274 275 276 277 278
264 265 266 265 266 267 267 267 267 268 268 268 268 268 270 271 272 271 270 270 271 272 272 274 274 274 274 275 276 277 276 276 275 275 276 276 278 279
265 265 267 267 266 266 267 267 267 268 269 269 269 269 270 272 272 272 273 273 273 273 273 274 275 275 275 276 277 278 278 278 277 276 276 277 279 281
264 266 266 266 265 265 266 268 269 268 270 271 270 270 271 272 272 273 274 274 275 275 275 275 276 276 277 277 277 278 279 278 278 278 278 279 281 281
265 266 266 265 265 265 266 267 267 269 271 272 271 271 271 272 273 274 275 277 278 277 276 276 276 277 278 279 280 280 280 280 280 279 279 280 282 282
265 265 265 264 264 265 265 266 268 269 270 271 271 272 272 273 275 276 276 277 277 276 276 276 277 278 279 279 280 281 281 282 282 281 280 282 283 283
263 264 265 265 264 264 265 267 269 269 271 272 272 272 273 275 275 276 277 277 276 276 276 277 277 278 279 280 280 281 282 283 283 282 282 283 283 284
262 263 264 264 264 265 267 268 269 269 271 272 273 274 275 275 276 277 277 276 277 277 277 277 278 278 279 280 281 282 284 285 285 284 283 284 285 285
262 263 265 265 265 266 268 269 269 270 272 273 273 274 275 275 276 276 278 278 278 278 277 277 278 279 279 280 282 284 285 286 286 286 285 285 285 286
261 262 263 264 265 267 268 268 269 271 273 273 274 275 275 275 275 276 277 278 277 277 277 278 278 279 280 282 283 284 285 286 287 287 286 286 287 287
260 262 263 265 266 267 268 269 270 271 272 274 275 276 275 274 274 276 277 277 276 277 278 279 279 280 282 284 284 285 285 287 288 288 287 287 289 289
261 263 264 266 266 267 268 269 271 272 273 274 276 277 276 275 275 276 277 277 277 277 278 279 280 282 284 285 285 286 286 287 288 288 287 288 289 289
261 263 265 267 267 268 269 270 272 273 274 275 277 277 277 277 277 277 277 277 277 278 278 279 280 282 284 286 286 287 287 288 289 290 289 290 290 289
263 265 267 269 270 270 270 272 273 273 274 276 276 276 277 277 278 278 278 278 278 278 279 280 281 283 285 287 287 287 288 289 289 290 290 290 290 289
Height
5683 5684 5685 5686 5687 5688 5688 5689 5690 5690 5692 5693 5694 5694 5694 5695 5696 5697 5697 5699 5699 5700 5701 5702 5703 5704 5705 5707 5708 5709 5709 5710 5711 5711 5712 5712 5712 5712
5672 5673 5674 5675 5676 5676 5676 5677 5678 5678 5680 5682 5682 5683 5683 5684 5684 5685 5686 5686 5687 5688 5688 5689 5690 5690 5692 5693 5694 5695 5696 5697 5698 5698 5699 5699 5699 5699
5661 5662 5663 5663 5664 5665 5665 5666 5666 5667 5668 5670 5670 5671 5671 5672 5672 5673 5673 5674 5675 5675 5676 5676 5677 5678 5678 5679 5680 5681 5682 5683 5684 5684 5685 5685 5685 5685
5649 5650 5651 5651 5652 5653 5654 5654 5655 5656 5657 5658 5659 5659 5660 5660 5660 5661 5661 5662 5663 5663 5663 5664 5664 5665 5665 5666 5667 5668 5668 5669 5670 5670 5671 5671 5671 5670
5638 5638 5639 5640 5640 5641 5642 5643 5644 5644 5645 5645 5646 5647 5648 5648 5648 5649 5649 5650 5650 5651 5651 5651 5651 5652 5652 5652 5653 5654 5654 5655 5656 5656 5656 5656 5655 5654
5626 5627 5628 5628 5629 5630 5630 5631 5632 5632 5633 5634 5634 5635 5636 5636 5636 5637 5637 5638 5638 5638 5639 5639 5639 5639 5639 5639 5640 5640 5640 5640 5641 5641 5641 5641 5640 5639
5615 5616 5616 5617 5618 5618 5619 5619 5620 5621 5621 5622 5623 5623 5624 5624 5624 5624 5625 5626 5626 5626 5626 5627 5627 5626 5625 5625 5625 5625 5625 5626 5626 5626 5625 5625 5625 5624
5604 5605 5605 5606 5606 5607 5607 5608 5608 5609 5610 5610 5611 5611 5612 5612 5612 5612 5613 5613 5614 5616 5614 5614 5613 5613 5612 5612 5611 5611 5611 5611 5611 5611 5611 5610 5609 5608
5592 5593 5594 5594 5595 5595 5596 5596 5597 5597 5598 5599 5599 5600 5600 5600 5600 5600 5600 5601 5602 5601 5601 5602 5601 5601 5599 5598 5598 5597 5597 5597 5597 5596 5596 5595 5594 5593
5581 5582 5582 5583 5583 5584 5585 5585 5586 5586 5586 5587 5588 5588 5588 5588 5588 5588 5588 5589 5589 5589 5588 5589 5588 5587 5587 5585 5584 5584 5583 5582 5582 5581 5581 5580 5579 5578
5569 5570 5571 5571 5572 5573 5573 5574 5575 5575 5575 5575 5576 5576 5576 5577 5576 5576 5576 5576 5577 5577 5575 5575 5575 5574 5574 5573 5571 5570 5569 5568 5568 5567 5566 5565 5564 5563
5558 5559 5559 5560 5560 5561 5562 5563 5564 5564 5565 5565 5565 5565 5565 5565 5565 5564 5564 5564 5564 5565 5563 5562 5562 5561 5562 5561 5559 5557 5555 5554 5554 5553 5552 5551 5550 5548
5547 5548 5548 5549 5549 5550 5551 5552 5553 5553 5554 5554 5554 5554 5554 5554 5553 5553 5552 5552 5552 5552 5551 5550 5550 5549 5548 5548 5547 5545 5543 5542 5540 5539 5538 5537 5536 5534
5537 5537 5538 5538 5539 5540 5540 5541 5542 5542 5543 5543 5543 5543 5543 5543 5542 5541 5541 5540 5540 5539 5538 5537 5537 5537 5536 5535 5535 5533 5531 5529 5528 5527 5525 5523 5522 5520
5526 5527 5527 5528 5528 5529 5530 5530 5531 5532 5532 5532 5532 5532 5532 5531 5530 5530 5529 5528 5528 5527 5526 5525 5525 5525 5524 5523 5522 5521 5520 5518 5516 5514 5512 5510 5508 5507
5515 5516 5517 5517 5518 5518 5519 5520 5520 5521 5521 5521 5521 5521 5520 5520 5519 5518 5518 5517 5517 5516 5515 5514 5513 5513 5512 5511 5510 5509 5507 5506 5504 5502 5500 5498 5495 5494
5505 5506 5507 5507 5508 5508 5509 5509 5510 5510 5510 5510 5510 5510 5509 5509 5508 5507 5507 5506 5506 5505 5505 5503 5502 5502 5501 5500 5499 5497 5496 5494 5492 5490 5488 5486 5483 5481
5495 5496 5496 5497 5498 5498 5499 5499 5499 5499 5499 5499 5499 5499 5499 5498 5498 5497 5496 5496 5496 5495 5494 5493 5492 5491 5491 5489 5488 5486 5484 5482 5480 5478 5476 5474 5472 5469
5485 5486 5487 5487 5488 5489 5489 5489 5490 5489 5489 5489 5489 5489 5488 5488 5487 5487 5486 5486 5485 5484 5483 5482 5481 5481 5480 5479 5477 5475 5473 5471 5469 5467 5465 5463 5461 5458
5476 5477 5477 5478 5479 5479 5479 5480 5480 5480 5480 5480 5479 5479 5478 5478 5477 5477 5476 5475 5475 5474 5473 5471 5471 5470 5469 5468 5466 5464 5461 5460 5458 5456 5454 5452 5450 5448
5467 5467 5468 5469 5469 5470 5470 5470 5470 5470 5470 5470 5470 5469 5468 5468 5467 5466 5465 5465 5464 5463 5462 5461 5460 5459 5457 5456 5455 5454 5451 5449 5447 5446 5444 5442 5440 5438
5458 5459 5459 5460 5460 5460 5460 5460 5461 5460 5460 5460 5459 5459 5458 5457 5456 5456 5455 5454 5453 5452 5451 5450 5449 5448 5447 5446 5444 5443 5441 5439 5436 5434 5433 5432 5430 5428
5450 5450 5451 5451 5451 5451 5451 5451 5451 5451 5450 5450 5449 5448 5448 5447 5446 5445 5445 5444 5443 5442 5441 5440 5439 5438 5436 5435 5434 5432 5431 5429 5427 5425 5422 5420 5419 5417